This is the latest recevied weather packets stored in our database for station/object N0ZMJ-3. If no packets are shown the sender has not sent any weather packets the latest 10 day(s).
| Time | Temp. | Humidity | Pressure | Rain* | Wind** | Luminosity | Snow |
|---|---|---|---|---|---|---|---|
| 1777917742 | 12.78° C | 55% | 1004.1 hPa | 0 mm | - | - | - |
| 1777917322 | 12.22° C | 57% | 1004.1 hPa | 0 mm | - | - | - |
| 1777917255 | 12.22° C | 54% | 1004.1 hPa | 0 mm | - | - | - |
| 1777916903 | 12.78° C | 54% | 1004 hPa | 0 mm | - | - | - |
| 1777916655 | 12.78° C | 54% | 1003.8 hPa | 0 mm | - | - | - |
| 1777916487 | 12.78° C | 54% | 1003.8 hPa | 0 mm | - | - | - |
| 1777916055 | 12.78° C | 50% | 1004 hPa | 0 mm | - | - | - |
| 1777915643 | 12.78° C | 49% | 1003.7 hPa | 0 mm | - | - | - |
| 1777915454 | 13.33° C | 49% | 1003.7 hPa | 0 mm | - | - | - |
| 1777915223 | 13.33° C | 49% | 1003.7 hPa | 0 mm | - | - | - |
| 1777914854 | 13.33° C | 46% | 1003.6 hPa | 0 mm | - | - | - |
| 1777914803 | 13.33° C | 46% | 1003.6 hPa | 0 mm | - | - | - |
| 1777914381 | 13.33° C | 47% | 1003.4 hPa | 0 mm | - | - | - |
| 1777914254 | 13.89° C | 50% | 1003.4 hPa | 0 mm | - | - | - |
| 1777913970 | 13.89° C | 48% | 1003.3 hPa | 0 mm | - | - | - |
| 1777913656 | 13.89° C | 47% | 1003.2 hPa | 0 mm | - | - | - |
| 1777913545 | 13.89° C | 47% | 1003.2 hPa | 0 mm | - | - | - |
| 1777913124 | 13.89° C | 53% | 1003.3 hPa | 0 mm | - | - | - |
| 1777913056 | 13.33° C | 53% | 1003.2 hPa | 0 mm | - | - | - |
| 1777912710 | 13.33° C | 51% | 1003.1 hPa | 0 mm | - | - | - |
| 1777912455 | 13.33° C | 54% | 1003 hPa | 0 mm | - | - | - |
| 1777912284 | 13.33° C | 54% | 1003 hPa | 0 mm | - | - | - |
| 1777911855 | 13.33° C | 55% | 1002.9 hPa | 0 mm | - | - | - |
| 1777911445 | 13.33° C | 57% | 1002.7 hPa | 0 mm | - | - | - |
| 1777911255 | 13.33° C | 58% | 1002.7 hPa | 0 mm | - | - | - |
* Rain latest hour (hover to see other rain measurements)
** Current wind speed in m/s (hover to see current wind gust speed)